Theta_e
343 343 344 344 345 344 344 346 348 347 350 349 350 352 351 353 355 358 360 362 363 364 365 366 366 366 363 361 360 360 360 360 361 360 359 358 356 355 355 356 359 360 358 357 359 358 362 366 366 365 368 366 367 368 372 371 370 367 370 376 368 370 371
342 343 343 340 344 345 346 346 347 348 348 349 351 351 352 353 354 356 360 364 366 366 366 367 367 366 365 364 361 362 361 360 361 362 360 359 359 358 355 356 356 360 362 360 359 361 363 362 365 367 367 367 365 369 367 369 370 370 370 371 369 369 371
340 342 341 343 344 343 344 347 349 348 349 350 351 353 353 357 355 359 360 363 366 367 368 368 368 366 366 364 363 363 363 360 360 360 358 355 358 354 356 358 357 355 358 360 363 361 361 364 365 366 365 364 362 365 367 369 370 369 370 373 369 367 369
340 341 343 344 346 348 349 348 346 350 352 350 349 349 350 355 357 360 360 365 365 367 368 368 367 365 365 366 364 364 364 363 361 358 357 355 355 356 355 356 358 355 354 355 355 359 358 361 363 365 365 363 363 362 363 364 364 366 367 369 367 367 367
339 341 342 342 344 345 348 349 349 350 350 350 354 352 351 352 355 355 359 360 360 360 362 364 365 364 365 366 363 362 364 363 361 358 358 357 357 357 354 353 354 354 353 354 356 356 359 360 360 362 363 365 362 363 363 363 363 364 365 366 365 364 361
336 339 340 342 344 347 344 346 349 350 352 350 347 350 352 354 353 354 357 355 355 356 358 360 361 364 364 364 362 361 365 366 364 362 359 358 357 354 354 354 352 354 350 352 352 354 356 357 358 360 361 360 358 356 358 360 360 360 363 364 364 360 356
336 337 339 342 345 345 346 348 349 349 352 354 355 352 353 352 354 354 355 355 356 362 357 356 357 361 365 363 363 362 364 364 365 361 359 357 357 356 355 356 356 352 352 354 353 353 353 357 358 360 360 359 358 355 358 360 360 360 361 363 363 362 363
336 336 338 340 342 346 347 348 349 349 351 351 352 350 350 351 353 352 353 356 354 357 355 354 355 358 365 364 363 362 363 363 364 364 360 357 356 356 354 355 356 356 353 349 353 353 351 357 357 357 357 357 358 359 356 359 362 358 359 360 362 362 358
335 337 337 339 342 343 345 349 350 349 351 350 351 353 352 353 353 357 353 357 357 355 353 357 358 359 363 363 363 363 362 362 362 364 361 356 354 353 352 353 356 358 354 350 349 354 354 352 355 357 357 358 358 360 358 362 360 361 360 360 361 362 358
334 335 337 339 342 341 340 341 345 349 351 353 353 353 352 350 350 351 351 353 356 350 352 356 358 354 359 363 362 362 362 363 361 360 359 355 353 351 351 349 352 356 354 351 349 347 354 354 353 355 359 357 358 359 361 360 360 360 360 359 361 362 363
333 335 336 338 339 339 340 340 341 342 346 350 349 351 352 352 350 349 354 352 353 356 357 358 355 354 357 360 362 362 361 360 359 358 358 355 353 352 350 348 347 351 352 352 349 346 349 354 355 357 358 355 357 358 360 360 362 362 358 358 359 361 361
332 332 332 334 335 336 337 338 340 340 341 344 347 348 351 353 353 353 351 350 352 351 352 359 357 356 357 359 360 360 361 360 359 357 357 357 354 352 351 349 348 347 349 351 350 348 345 350 353 353 356 358 359 359 360 362 362 363 363 357 355 358 359
328 329 330 331 332 333 335 336 337 339 340 340 341 344 348 349 352 352 354 351 356 355 354 357 350 353 354 359 354 359 358 359 359 359 357 357 357 354 352 351 349 347 347 350 350 349 346 345 351 354 354 357 359 357 359 360 360 363 363 361 359 356 358
327 327 329 329 330 330 331 333 335 336 338 338 339 341 343 350 350 353 352 352 352 358 354 352 354 352 353 354 353 356 357 358 360 360 362 361 363 359 354 352 351 351 350 351 351 348 347 345 345 350 354 355 357 359 359 359 359 361 362 362 359 355 354
324 324 326 326 328 329 329 329 332 333 334 336 337 338 340 343 347 351 352 353 355 354 351 354 356 353 353 353 353 358 360 362 360 361 364 362 363 360 358 355 355 355 354 353 351 350 349 347 345 346 350 354 357 358 356 352 355 357 359 359 360 358 352
323 323 324 324 325 326 328 328 330 331 333 334 334 336 337 339 343 346 349 349 351 352 353 354 354 356 353 353 355 357 359 363 364 365 364 363 362 364 362 359 358 355 354 354 352 355 356 356 352 348 347 350 354 356 354 352 349 355 348 353 358 358 351
322 322 323 324 326 326 327 328 328 329 330 331 332 333 335 337 339 341 345 348 350 352 354 355 355 354 354 355 356 358 360 358 361 363 363 365 365 365 366 364 360 359 363 359 357 360 364 357 354 351 348 348 349 352 352 351 348 343 335 337 344 356 356
321 322 323 324 325 326 326 327 328 328 328 329 329 331 332 335 336 337 341 346 348 351 351 351 352 354 356 356 359 359 357 359 362 363 363 364 367 368 367 366 364 362 362 359 358 363 359 357 357 358 354 351 350 349 350 351 347 332 332 335 335 345 356
321 322 322 324 325 325 325 326 327 329 329 328 329 330 331 332 334 337 341 345 347 351 351 351 348 351 353 356 358 359 358 356 357 361 361 363 363 367 367 367 365 361 359 358 360 360 362 363 359 359 359 357 354 350 350 350 341 331 329 332 332 334 348
321 321 322 322 324 325 326 326 327 328 330 330 330 330 331 332 331 334 339 342 345 348 349 348 348 348 346 349 351 352 352 351 348 347 349 355 358 361 364 365 365 361 359 357 359 360 359 360 361 360 362 361 360 358 355 353 345 329 326 328 329 331 339
320 320 321 322 322 323 325 326 326 327 328 329 330 330 331 330 330 333 335 338 340 344 346 345 345 346 346 347 348 348 347 350 350 351 351 351 353 356 354 356 359 361 360 357 357 358 360 359 360 361 362 360 360 360 357 355 340 328 323 323 325 328 336
320 319 319 320 321 322 323 323 324 326 328 330 331 328 330 330 331 331 331 335 338 341 343 342 343 343 343 343 343 345 346 344 343 347 352 355 356 354 353 353 353 355 360 359 357 359 359 361 360 360 360 360 361 358 358 358 335 328 322 320 322 326 346
319 320 320 321 320 321 323 323 322 324 327 327 328 327 330 331 331 332 331 331 333 336 336 337 337 338 340 341 342 344 344 343 343 345 348 352 355 353 352 353 354 356 358 358 355 356 357 359 358 361 360 360 360 359 360 359 344 325 320 318 319 327 351
318 320 319 320 321 321 323 323 322 323 323 323 325 324 328 331 331 333 333 333 332 335 335 335 334 336 337 338 340 344 345 344 342 343 345 347 350 356 359 360 358 356 357 353 355 358 358 358 359 360 360 359 359 359 359 359 350 323 318 316 317 333 353
317 318 318 318 318 319 319 321 322 322 323 323 323 323 325 327 327 327 331 333 330 333 333 332 333 334 334 335 336 338 341 345 345 343 343 345 348 351 353 355 356 356 358 360 359 358 361 361 360 358 359 358 358 361 358 359 350 324 318 316 315 332 356
316 316 316 317 318 319 320 322 322 321 320 319 322 323 324 324 324 326 328 329 329 330 331 332 333 334 336 337 336 337 339 341 345 344 344 345 347 349 352 354 357 358 359 359 359 357 358 360 358 358 359 358 358 358 358 358 359 355 318 316 313 319 355
316 315 316 316 316 320 318 319 318 318 319 321 323 322 322 323 323 325 327 328 328 330 331 333 335 335 337 337 336 336 337 339 342 342 344 345 347 349 351 354 354 354 354 358 361 356 358 359 358 356 357 357 359 358 357 355 357 365 316 314 312 315 328
314 314 315 317 318 317 317 316 318 318 318 320 320 321 322 323 323 324 326 326 326 329 331 334 335 335 337 336 336 336 336 337 341 343 342 345 347 348 348 352 354 354 355 354 357 358 359 360 359 358 356 357 361 361 362 365 362 364 325 314 312 312 315
313 313 314 315 316 316 315 315 316 316 317 317 319 321 322 322 322 324 325 325 327 328 331 332 333 334 335 337 336 336 336 338 338 339 341 343 345 346 346 348 351 353 354 356 356 356 357 359 359 359 358 361 361 362 364 365 366 347 361 314 310 310 311
314 314 314 314 314 315 316 316 316 316 318 318 319 320 320 322 323 323 324 325 328 329 330 331 332 333 332 335 335 334 334 335 336 337 339 342 344 345 346 348 349 350 352 353 353 353 355 355 353 357 358 357 358 360 362 364 363 353 339 345 311 311 309
312 313 313 314 314 317 317 317 317 317 318 319 320 320 321 321 321 323 323 326 328 329 329 329 329 329 331 333 333 333 333 333 335 335 338 341 341 342 343 346 347 347 351 353 354 355 354 355 353 351 352 353 354 358 358 360 362 364 352 332 325 312 310
313 314 314 314 315 316 317 316 317 316 316 318 319 319 321 320 320 320 323 325 326 327 328 328 328 329 330 330 330 329 330 331 331 334 337 337 338 339 341 342 343 345 348 350 350 353 354 354 353 351 352 352 354 356 356 357 361 360 363 353 338 324 313
312 313 314 314 315 316 315 316 315 315 315 316 318 319 319 320 320 321 322 323 323 323 326 327 327 327 327 328 328 329 328 329 329 331 332 333 335 339 341 342 343 343 346 349 349 350 351 353 352 352 354 354 354 355 355 358 358 359 359 363 364 360 345
312 313 314 315 315 316 316 315 316 316 317 317 318 318 318 318 319 321 322 321 321 322 323 324 325 324 324 326 328 327 325 325 330 330 330 332 334 334 335 337 338 339 341 343 346 347 348 349 349 349 348 351 353 354 356 356 357 360 358 364 361 361 364
312 313 313 313 314 315 314 315 315 316 316 317 318 318 319 319 319 320 322 323 323 324 323 322 323 324 324 324 326 326 327 325 325 325 328 331 333 333 335 336 338 340 341 342 343 343 341 338 338 340 342 347 349 352 354 356 357 363 328 342 323 340 357
312 312 312 313 313 314 314 315 315 315 316 316 318 318 318 319 320 321 321 323 324 324 324 324 324 324 323 325 325 325 324 324 324 327 329 328 328 331 333 335 324 330 336 336 334 325 318 316 334 339 341 340 342 345 345 348 353 329 316 313 315 314 313
311 310 310 312 311 312 312 313 314 315 315 315 317 317 318 318 319 320 321 323 323 324 325 325 324 323 323 325 326 326 326 325 326 328 329 330 330 331 332 333 336 313 310 318 324 320 313 309 308 309 312 328 336 336 326 323 319 315 313 311 310 313 313
311 311 311 311 311 311 311 312 313 313 314 315 315 315 317 316 318 319 319 321 322 324 324 324 323 322 322 323 325 326 327 326 328 328 329 329 330 332 331 331 331 334 320 309 310 310 305 304 304 304 306 308 314 326 336 326 317 311 310 308 307 310 310
Wind_Speed
16 14 14 11 13 13 14 13 14 12 9 10 10 13 15 16 16 15 15 16 18 17 16 16 15 14 15 13 13 12 11 10 9 9 9 8 8 7 8 7 7 6 6 6 6 6 5 5 6 6 6 6 6 5 4 4 4 3 3 3 3 2 3
9 12 11 14 13 13 13 14 14 12 13 13 14 19 18 17 16 16 15 17 18 18 17 17 16 15 14 13 13 13 12 12 11 9 9 8 7 8 8 8 7 7 6 5 5 6 6 7 6 6 6 6 6 5 5 5 5 4 4 4 4 3 4
3 6 8 10 11 12 16 14 11 12 11 12 14 13 13 12 12 14 15 15 15 16 16 17 16 16 14 14 13 13 13 13 12 12 12 10 11 11 9 8 8 8 8 7 6 6 7 7 7 6 6 6 6 6 5 5 5 5 5 4 4 5 4
6 8 6 7 8 7 7 11 12 6 2 8 14 19 18 14 9 9 11 11 11 12 16 15 17 16 15 15 14 14 14 14 13 13 13 11 11 11 10 9 8 8 8 9 8 6 6 7 7 7 7 6 6 6 7 6 6 6 6 5 5 4 5
7 6 4 4 6 7 5 2 1 5 6 9 8 13 11 14 15 14 12 14 14 16 15 15 14 15 14 15 12 12 14 15 14 13 12 11 10 10 10 11 10 10 8 9 8 8 6 7 8 8 8 7 7 6 7 7 7 6 6 6 5 5 5
9 7 6 4 4 7 5 8 9 11 8 9 14 12 14 13 12 12 12 15 16 16 16 16 17 16 15 15 13 13 14 14 13 12 12 12 11 11 11 11 11 11 11 10 9 9 9 8 8 8 9 9 8 8 8 8 7 8 7 7 6 6 6
10 9 8 7 8 8 13 13 12 12 12 9 14 10 8 11 6 5 9 13 14 12 17 19 16 15 14 14 14 15 15 15 14 15 13 14 13 12 11 11 11 11 10 9 9 9 10 10 9 9 9 9 8 9 8 7 8 7 7 7 7 6 6
10 9 9 11 10 10 5 8 12 13 13 12 12 10 11 8 10 11 9 13 11 13 16 18 19 16 14 13 14 15 15 15 14 14 13 14 14 13 13 11 11 11 10 11 10 10 11 11 10 10 10 10 9 9 9 8 7 8 7 7 7 8 7
12 12 10 10 10 11 12 13 8 6 7 11 9 6 4 5 3 6 7 4 6 15 16 13 11 13 14 14 13 15 15 14 14 14 15 15 14 15 14 13 12 11 12 12 11 11 10 11 11 10 10 10 9 9 9 7 9 9 8 7 8 8 8
13 13 11 10 11 12 12 12 13 12 8 4 7 8 5 6 7 7 6 10 8 11 8 8 10 16 14 13 13 15 14 13 13 15 15 15 13 15 15 14 13 12 12 13 11 11 11 11 11 11 9 10 10 10 9 9 9 9 9 9 9 9 8
12 13 13 13 15 14 14 15 15 13 11 8 6 5 7 5 4 10 6 9 10 5 9 9 13 11 13 12 14 13 13 15 15 14 15 15 14 15 15 15 14 13 13 13 13 12 12 11 11 10 10 11 11 11 10 10 10 10 10 10 9 10 9
12 13 14 15 15 16 16 14 14 14 13 12 10 9 10 7 5 6 7 10 4 5 6 17 6 6 5 13 13 11 13 14 14 15 15 15 15 15 15 14 13 13 13 13 13 13 12 12 12 11 11 11 11 11 11 10 10 10 10 11 11 10 10
12 12 13 15 15 14 14 16 16 15 15 13 14 13 9 6 5 4 6 1 2 4 7 8 5 9 14 11 12 9 13 14 13 13 14 14 14 13 13 13 14 14 13 13 13 13 13 13 12 11 12 12 12 12 11 11 11 10 10 11 10 10 10
14 14 15 14 15 16 16 16 16 15 15 15 14 13 11 9 8 8 5 5 8 5 3 5 11 8 7 6 5 11 11 12 12 13 12 12 11 12 13 13 14 13 13 12 14 13 14 14 13 13 12 12 12 12 11 12 12 11 11 11 11 11 11
13 14 15 15 15 15 15 16 14 14 14 14 15 14 13 13 10 7 10 9 5 6 6 5 4 7 8 8 8 6 9 8 10 11 10 11 11 12 13 12 13 12 11 11 12 12 13 13 13 13 13 12 12 12 12 12 12 11 12 12 12 12 12
13 13 14 15 14 14 14 14 14 14 14 14 15 14 14 12 12 10 8 9 10 7 6 7 6 8 8 8 8 8 8 7 8 8 9 11 11 11 12 12 12 12 13 12 12 10 9 10 11 12 13 13 13 12 12 12 11 12 16 14 11 12 11
12 13 13 14 13 14 13 14 14 14 14 14 14 14 12 11 11 11 10 9 8 10 10 9 8 6 4 9 6 7 8 9 9 8 10 10 10 10 10 11 11 10 9 10 11 10 9 9 12 13 13 13 13 14 12 12 11 14 17 17 15 12 11
11 12 13 13 13 13 13 14 14 14 14 14 14 13 12 10 11 10 9 9 10 10 10 11 11 10 9 9 9 8 9 8 8 9 8 9 8 9 9 9 9 9 10 10 11 9 11 12 12 12 13 12 13 13 13 12 12 14 18 18 18 14 12
11 11 12 12 12 13 13 13 13 13 13 13 12 12 12 11 9 10 9 9 11 10 10 10 9 10 10 11 11 11 10 11 11 8 7 7 8 7 8 8 9 10 10 12 11 11 11 11 12 13 13 12 12 14 14 13 15 15 18 19 19 19 16
10 10 11 11 11 12 12 11 11 12 12 12 12 12 11 11 11 9 8 8 9 9 10 10 9 10 10 10 11 12 9 4 5 8 10 9 9 11 8 9 10 11 11 11 11 11 12 13 13 12 11 11 12 12 13 15 14 16 19 19 20 19 16
8 9 10 10 11 11 11 11 12 12 12 12 12 11 11 11 11 9 10 9 9 8 9 9 10 10 10 9 10 10 11 7 4 5 6 5 5 6 6 10 10 11 10 11 11 12 12 13 13 12 13 13 12 12 13 13 14 13 17 19 20 20 16
7 8 10 9 9 10 10 11 11 11 10 10 10 12 11 11 11 11 11 10 9 9 8 8 8 9 9 9 9 8 7 8 8 8 7 8 6 6 8 9 11 10 12 12 12 10 12 12 12 13 13 14 14 13 13 13 14 15 16 17 17 18 11
7 6 7 8 8 9 9 9 10 10 9 9 9 10 10 10 11 11 11 10 9 9 9 8 9 9 9 9 10 7 5 5 8 8 8 9 8 6 5 6 6 7 7 11 14 13 12 12 13 11 12 13 13 14 12 13 12 15 16 17 18 13 10
5 6 6 7 6 7 8 9 9 8 8 9 9 10 9 9 9 9 9 10 10 8 8 8 9 9 9 9 9 8 6 2 4 7 7 8 8 8 6 5 3 4 5 10 14 14 12 11 10 11 12 14 14 14 13 13 12 14 16 17 18 16 11
6 6 6 6 7 8 9 9 9 9 7 8 9 10 9 9 9 9 9 9 10 8 8 8 9 9 10 9 8 8 7 6 4 4 6 7 8 8 6 5 6 6 6 9 10 13 11 10 10 11 11 13 15 14 15 13 13 16 17 18 19 16 10
7 8 7 8 7 9 8 8 8 8 9 9 9 9 9 9 8 9 8 10 9 9 9 8 8 9 9 9 9 9 8 7 5 3 4 6 8 8 6 5 6 8 10 11 10 11 11 11 12 12 12 11 13 12 14 15 13 12 19 20 20 21 12
6 7 8 9 9 10 9 9 8 8 9 8 8 9 8 8 8 9 9 9 8 9 9 8 9 8 8 8 9 10 9 9 8 7 6 6 6 6 7 7 7 7 10 11 10 13 13 12 12 13 13 12 12 12 13 14 14 11 19 18 20 21 18
7 7 8 8 9 10 10 9 9 9 9 9 9 10 9 8 9 9 9 9 9 10 9 8 9 8 8 9 9 9 9 9 8 8 7 5 5 6 8 8 9 9 9 10 12 12 12 12 11 10 12 11 12 12 12 10 9 10 11 17 19 21 23
6 7 7 8 9 8 9 10 11 11 11 10 10 9 9 11 11 10 9 10 11 10 10 10 9 9 9 9 9 9 9 9 8 7 6 7 6 7 8 8 9 10 9 8 9 11 13 13 12 12 11 10 10 10 11 11 10 9 8 13 16 17 19
7 7 7 8 9 9 9 10 10 11 11 11 11 10 10 9 10 10 10 12 10 10 10 10 10 10 9 8 9 10 9 9 9 8 7 7 7 8 8 8 9 9 9 8 9 8 8 9 11 11 10 11 11 11 11 10 12 10 13 11 17 18 19
9 9 9 8 8 8 9 9 11 11 12 11 11 10 10 9 10 11 12 10 9 10 10 10 11 10 10 9 9 10 9 9 9 9 8 8 7 7 8 8 8 8 7 7 8 9 8 5 6 8 11 11 12 11 11 11 10 11 12 16 16 19 20
8 8 9 10 9 8 9 10 11 11 12 12 12 12 10 10 10 12 11 11 10 10 10 11 11 10 10 10 10 10 10 11 11 10 8 9 9 8 7 7 8 8 7 7 8 8 9 7 7 9 9 12 12 11 11 12 10 11 11 9 12 14 18
9 9 10 10 11 11 9 9 10 11 12 13 12 12 12 13 12 12 11 11 11 12 11 11 11 11 11 11 10 10 10 11 10 9 9 10 9 8 6 6 6 8 8 8 8 9 8 9 8 8 8 9 10 11 12 12 12 11 10 10 5 6 8
9 10 10 11 12 11 11 10 10 11 12 12 12 12 13 13 13 13 14 13 13 12 12 12 12 13 13 13 11 10 11 10 12 12 9 8 7 8 8 8 8 8 7 8 8 9 9 7 7 7 10 11 11 11 10 11 11 9 4 3 3 5 4
9 10 10 11 11 12 11 11 11 12 12 12 12 13 12 13 13 13 14 14 13 12 12 12 13 13 15 13 12 11 10 10 10 11 10 8 8 8 7 7 8 8 9 10 9 8 9 9 10 9 10 9 9 8 10 9 9 1 6 4 5 6 5
8 10 11 11 10 11 12 12 12 13 13 12 11 12 13 13 13 13 13 13 12 13 13 12 12 12 13 12 12 11 10 10 10 10 9 10 10 9 9 7 5 9 10 11 10 11 13 9 10 9 9 11 12 10 11 11 9 12 16 15 12 8 6
8 9 10 11 13 13 13 13 14 14 14 13 12 12 13 13 13 13 13 13 13 13 13 13 12 11 12 11 11 10 10 10 10 9 9 9 10 10 10 10 9 11 15 15 14 13 14 15 17 16 13 9 11 13 16 17 18 18 18 16 9 8 8
9 10 11 11 12 13 14 15 15 15 15 14 13 13 13 13 14 13 14 13 13 12 13 13 12 12 12 12 11 10 10 9 9 9 9 10 9 9 10 10 11 10 9 14 14 13 14 14 15 15 15 17 14 12 12 14 16 17 17 15 8 12 14
Wind_Direction
147 191 179 190 185 191 188 193 192 194 193 189 201 224 196 189 185 180 178 176 179 180 181 179 181 181 183 186 187 185 191 190 191 193 198 197 198 200 198 201 199 205 201 196 197 202 193 198 185 190 180 186 201 188 195 191 199 209 210 209 228 258 216
154 169 176 180 185 185 193 189 189 191 194 193 195 205 202 189 190 185 180 177 181 180 179 180 180 181 183 185 185 187 189 192 192 194 196 194 204 202 203 196 205 200 213 207 199 198 194 192 198 192 189 188 200 196 195 202 209 221 219 200 221 221 227
134 159 182 190 188 194 189 187 184 193 193 190 204 204 195 194 180 192 176 180 182 183 182 180 181 181 183 183 184 187 190 190 191 194 196 199 197 203 200 201 201 202 202 207 207 200 199 196 189 196 202 197 200 193 205 203 210 215 225 220 218 215 224
92 140 186 214 192 199 204 194 185 169 232 245 220 195 196 191 182 193 166 184 184 185 189 182 181 182 182 182 185 186 189 192 196 194 200 204 196 202 199 200 203 205 203 203 205 212 202 190 194 200 204 206 205 200 197 210 207 209 217 223 233 231 228
84 58 37 133 196 173 209 165 93 134 215 265 258 210 207 199 179 187 177 176 189 194 194 191 186 183 182 183 188 186 188 191 195 198 201 202 202 197 204 205 197 208 204 201 205 200 209 203 199 197 197 210 207 202 206 201 211 205 213 215 231 237 233
59 72 101 58 79 136 160 139 161 164 185 214 252 233 192 192 188 182 187 185 188 193 194 195 202 185 185 186 189 186 186 190 191 200 199 199 201 203 202 207 206 202 205 206 201 202 196 211 209 201 202 201 210 211 206 205 207 208 202 215 223 231 238
40 52 50 68 29 125 176 175 172 182 169 184 237 228 222 174 193 176 217 211 189 200 192 200 196 194 190 185 188 185 188 186 191 196 197 200 199 204 206 202 210 207 210 198 209 204 198 203 210 207 208 212 205 213 212 205 207 205 204 205 214 225 236
50 48 56 53 45 39 85 175 170 176 169 160 215 192 192 184 176 190 194 255 208 172 213 204 195 196 183 186 184 190 187 190 190 193 194 201 198 204 204 208 202 210 207 208 201 208 207 199 206 208 210 209 210 214 217 205 206 211 206 204 208 218 217
59 52 51 61 61 54 55 53 83 141 179 171 181 139 88 65 44 245 173 245 248 233 205 190 213 201 184 184 186 190 187 195 192 191 197 199 202 203 206 202 206 202 207 211 203 199 215 205 206 204 206 214 209 209 218 213 203 211 216 208 207 215 227
57 59 60 61 56 53 47 45 51 66 70 61 118 122 130 164 185 223 199 206 234 248 221 227 204 209 188 189 193 189 192 194 196 196 199 203 204 206 206 204 201 201 207 209 213 201 200 215 210 203 200 207 213 210 214 213 215 212 214 216 211 214 217
63 60 57 56 55 48 44 45 43 38 47 93 91 52 73 47 221 212 196 217 200 240 277 214 232 214 176 204 189 192 198 195 198 200 201 207 207 207 207 208 203 198 204 207 213 214 199 198 210 206 200 206 207 210 210 214 214 217 223 215 213 217 219
62 57 55 55 56 50 47 43 41 42 38 38 58 82 58 23 22 180 198 233 236 199 224 256 150 214 205 194 198 196 200 200 201 205 203 206 211 210 209 208 209 202 196 207 210 214 214 196 199 205 203 206 208 209 209 212 215 215 222 226 221 214 222
66 62 56 54 53 53 50 44 41 38 35 37 39 40 62 71 50 14 44 27 170 64 356 329 296 251 206 174 199 195 208 206 204 208 211 207 212 214 211 212 212 212 205 199 209 209 213 209 199 199 204 204 208 209 208 208 213 216 217 226 234 229 220
70 66 64 58 52 49 48 44 41 39 37 37 34 33 33 26 40 49 45 14 19 31 136 262 295 303 286 278 143 191 214 223 207 210 210 212 211 215 218 214 216 212 216 209 202 211 213 215 207 200 204 205 207 209 208 206 210 212 216 219 225 227 228
68 66 62 58 58 55 48 47 42 38 38 39 37 35 27 23 24 41 40 35 44 340 329 323 290 266 258 229 249 253 221 213 222 209 209 213 211 211 219 221 218 218 214 216 219 208 214 221 219 209 202 206 208 210 210 210 208 210 210 214 215 224 227
64 62 59 56 54 53 51 47 46 42 42 38 39 36 30 25 17 13 29 31 20 12 342 316 340 329 271 240 217 233 252 239 235 229 213 211 209 211 211 217 222 220 215 216 218 224 215 222 226 226 212 205 207 212 215 216 216 202 201 202 212 215 225
62 58 55 55 52 50 51 47 39 39 38 38 37 35 36 29 24 14 19 9 13 13 2 352 347 316 328 271 244 237 234 235 233 236 234 218 208 208 210 213 216 222 220 216 217 218 217 221 227 232 234 222 212 213 219 223 222 194 188 196 207 217 218
61 57 52 48 44 44 43 43 40 33 35 36 32 31 33 32 26 24 23 15 6 11 8 3 357 356 339 342 327 287 256 243 242 238 241 244 222 211 210 212 216 218 215 217 215 211 218 217 219 226 232 234 232 226 222 226 230 192 186 192 199 208 221
57 55 57 48 41 37 37 35 33 30 27 31 28 28 28 24 30 25 24 25 11 8 15 14 8 357 360 359 358 355 355 352 312 287 276 284 278 239 217 221 215 215 215 215 214 214 212 218 219 217 223 231 230 237 235 231 218 195 189 191 195 201 211
47 52 50 47 46 41 33 31 28 24 19 24 24 22 24 24 20 20 26 24 24 16 13 15 8 4 2 2 11 8 28 41 16 341 332 330 316 292 264 241 222 220 222 221 217 213 216 216 219 223 224 226 226 228 234 235 225 190 187 191 195 199 202
41 48 45 47 42 38 34 30 23 20 14 17 17 13 13 21 15 14 21 19 28 20 30 15 5 0 357 358 8 19 12 20 342 287 266 241 252 279 294 285 283 256 236 233 220 214 214 219 218 218 221 225 225 226 230 230 229 188 190 190 193 196 197
48 35 43 35 39 45 28 26 21 16 7 10 16 8 8 10 8 11 17 11 23 19 25 18 11 3 2 0 9 24 21 357 344 330 312 291 260 242 225 222 234 264 274 257 245 227 217 213 221 219 218 220 224 228 228 233 215 196 187 194 196 191 197
52 35 33 33 22 35 39 27 11 11 357 13 13 13 2 2 5 5 11 7 8 20 18 15 12 4 4 1 355 16 45 6 326 319 320 320 301 245 238 244 236 229 249 279 262 246 233 225 221 219 222 221 220 225 230 234 218 198 191 189 191 182 206
36 36 21 20 14 12 27 23 1 358 355 357 13 7 351 359 359 0 10 0 354 8 12 13 9 2 1 356 356 347 355 19 313 317 320 315 314 312 273 243 251 256 239 249 259 253 242 236 232 227 222 221 225 221 223 229 219 193 193 191 181 186 201
2 8 357 360 356 4 13 4 346 333 339 348 10 352 341 355 354 360 1 354 347 359 4 7 4 359 354 352 344 337 332 327 321 316 321 317 315 320 334 306 269 263 265 270 276 274 270 260 249 238 232 231 227 213 220 231 222 189 193 189 184 192 207
347 346 342 343 340 5 351 337 318 327 338 340 2 332 335 348 351 354 352 348 340 349 351 360 357 352 346 344 338 339 335 329 322 312 312 307 310 314 309 287 283 253 235 229 240 252 253 245 246 250 249 245 238 233 220 229 232 198 190 186 186 192 201
335 336 336 334 346 351 327 321 324 327 325 328 331 324 330 346 339 341 340 334 332 340 341 347 343 340 341 339 335 335 335 337 336 325 316 306 307 305 302 296 280 284 283 259 229 235 236 240 242 243 244 243 248 249 244 238 236 204 182 188 187 193 199
331 334 327 331 337 322 317 318 318 315 312 322 317 316 331 335 329 327 324 322 325 329 329 335 333 332 334 333 331 332 332 334 334 322 313 312 309 313 307 299 294 286 279 272 257 243 239 243 244 240 244 242 239 241 246 258 271 251 178 190 190 193 197
330 329 330 324 314 316 317 315 317 316 316 313 319 333 328 322 317 315 313 312 317 319 322 325 323 325 325 324 325 327 327 323 326 325 320 313 306 298 294 293 292 288 290 293 301 288 272 254 247 242 239 243 247 246 247 245 249 254 234 177 196 202 205
335 332 325 320 320 322 328 318 310 309 312 319 320 317 313 310 311 306 305 304 308 311 314 315 317 317 317 319 321 326 322 321 322 320 313 306 302 294 287 290 291 288 282 286 284 282 286 291 281 275 272 257 249 244 245 244 246 225 226 204 187 199 206
328 322 317 321 323 332 321 317 318 313 308 307 308 306 305 303 299 299 297 302 304 306 308 308 309 310 312 316 318 316 317 319 318 313 309 309 300 290 291 286 285 280 278 277 278 276 271 248 280 276 271 277 267 262 256 255 251 254 222 214 200 196 201
317 320 322 320 320 331 329 312 306 305 306 310 311 310 305 302 300 301 305 307 306 303 298 297 300 304 307 309 308 310 313 315 313 309 310 305 293 286 278 278 277 278 278 278 277 277 276 263 229 246 254 258 264 267 267 262 263 253 244 219 207 206 206
320 320 320 323 323 323 313 311 305 303 306 306 312 314 312 309 307 302 302 297 297 295 297 301 305 302 300 298 300 305 307 304 302 308 307 294 289 286 287 289 295 299 298 292 282 278 276 273 268 259 258 258 260 263 266 266 260 258 257 249 227 213 207
319 319 318 315 312 309 308 305 305 303 303 304 305 306 306 306 306 306 306 305 301 298 299 297 294 293 294 295 298 297 297 297 298 296 289 293 308 314 309 303 297 291 284 292 311 319 312 317 317 301 284 282 280 275 267 262 259 256 278 345 343 294 292
310 308 309 306 309 309 303 305 301 300 296 295 299 298 299 299 298 301 303 301 300 297 291 287 286 287 287 287 285 286 290 289 291 289 294 303 302 292 295 303 305 307 308 302 301 301 310 316 302 300 304 309 306 298 287 283 285 317 92 42 359 341 308
307 306 305 305 301 302 302 299 299 296 296 294 293 291 290 291 291 292 293 295 297 296 289 286 283 281 282 284 285 286 288 288 288 294 301 300 298 299 296 301 286 273 280 287 290 295 291 278 275 284 303 298 289 290 284 284 293 321 313 302 300 309 312
308 304 300 307 306 303 301 301 299 298 295 294 292 290 288 286 287 288 287 287 288 289 285 282 279 277 275 273 272 276 282 287 288 289 291 293 295 296 295 292 276 231 227 238 252 258 263 272 277 278 264 246 277 282 276 280 286 283 279 280 268 268 263
301 298 300 298 298 298 299 298 296 295 296 295 291 288 285 284 283 283 284 285 284 281 279 277 274 274 273 273 273 277 278 279 280 283 283 283 282 284 288 290 291 291 247 225 235 241 244 251 256 261 264 262 251 259 283 274 267 267 265 269 267 246 250